EXS53H EGKK-LPMA

Flight info

Callsign EXS53H
Flight time 1h 36m
Altitude 37000
Route NOVMA1X NOVMA L620 SAM M195 MARUK/N0460F350 M195 LORKU DCT EBOMO DCT COQUE DCT KORUL DCT AGADO DCT LAMDI/N0457F370 DCT VABEM DCT LIDRO LIDRO1P
Aircraft B738/M-SDE2E3FGHIRWXY/LB1

Departure

Time 2026-04-17 11:35
Airport London Gatwick Airport (EGKK)

Arrival

Time 2026-04-17 13:11
Airport Cristiano Ronaldo International Airport (LPMA)
Time Latitude Longitude Altitude Speed Heading
2026-04-17 11:10 51.15618 -0.16680 214 ft 0 kts 167°
2026-04-17 11:21 51.15638 -0.16687 210 ft 4 kts 167°
2026-04-17 11:22 51.15664 -0.16696 214 ft 4 kts 179°
2026-04-17 11:22 51.15680 -0.16693 213 ft 4 kts 211°
2026-04-17 11:22 51.15695 -0.16664 215 ft 0 kts 258°
2026-04-17 11:25 51.15694 -0.16665 203 ft 1 kts 258°
2026-04-17 11:26 51.15687 -0.16715 206 ft 8 kts 257°
2026-04-17 11:26 51.15674 -0.16811 212 ft 10 kts 257°
2026-04-17 11:26 51.15658 -0.16917 208 ft 10 kts 258°
2026-04-17 11:26 51.15643 -0.17025 207 ft 10 kts 258°
2026-04-17 11:27 51.15628 -0.17136 210 ft 11 kts 257°
2026-04-17 11:27 51.15611 -0.17256 209 ft 11 kts 255°
2026-04-17 11:27 51.15551 -0.17314 212 ft 11 kts 169°
2026-04-17 11:27 51.15475 -0.17288 212 ft 11 kts 167°
2026-04-17 11:28 51.15396 -0.17259 206 ft 13 kts 167°
2026-04-17 11:28 51.15301 -0.17223 205 ft 15 kts 160°
2026-04-17 11:28 51.15265 -0.17095 206 ft 14 kts 78°
2026-04-17 11:28 51.15286 -0.16943 203 ft 14 kts 77°
2026-04-17 11:29 51.15282 -0.16848 211 ft 0 kts 123°
2026-04-17 11:33 51.15276 -0.16834 207 ft 4 kts 130°
2026-04-17 11:34 51.15230 -0.16806 210 ft 10 kts 169°
2026-04-17 11:34 51.15138 -0.16796 205 ft 16 kts 204°
2026-04-17 11:34 51.15083 -0.17083 212 ft 58 kts 257°
2026-04-17 11:34 51.14931 -0.18179 205 ft 141 kts 257°
2026-04-17 11:35 51.14673 -0.20030 465 ft 191 kts 253°
2026-04-17 11:35 51.14326 -0.22115 1517 ft 193 kts 250°
2026-04-17 11:35 51.13958 -0.24070 2846 ft 183 kts 250°
2026-04-17 11:35 51.13568 -0.26092 3371 ft 202 kts 250°
2026-04-17 11:36 51.13127 -0.28350 3748 ft 218 kts 250°
2026-04-17 11:36 51.12672 -0.30677 4461 ft 221 kts 250°
2026-04-17 11:36 51.12213 -0.33014 5203 ft 223 kts 251°
2026-04-17 11:36 51.11747 -0.35374 5849 ft 228 kts 251°
2026-04-17 11:37 51.11266 -0.37803 6516 ft 231 kts 252°
2026-04-17 11:37 51.10768 -0.40309 6972 ft 247 kts 252°
2026-04-17 11:37 51.10241 -0.42952 7019 ft 256 kts 252°
2026-04-17 11:37 51.09697 -0.45672 7038 ft 258 kts 252°
2026-04-17 11:38 51.09155 -0.48382 7028 ft 256 kts 251°
2026-04-17 11:38 51.08615 -0.51073 7036 ft 254 kts 252°
2026-04-17 11:38 51.08076 -0.53755 7038 ft 254 kts 251°
2026-04-17 11:38 51.07545 -0.56397 7028 ft 253 kts 251°
2026-04-17 11:39 51.07005 -0.59070 7017 ft 254 kts 252°
2026-04-17 11:39 51.06465 -0.61751 7011 ft 254 kts 252°
2026-04-17 11:39 51.05924 -0.64430 7020 ft 254 kts 252°
2026-04-17 11:39 51.05380 -0.67123 7014 ft 255 kts 251°
2026-04-17 11:40 51.04835 -0.69808 7020 ft 255 kts 252°
2026-04-17 11:40 51.04287 -0.72503 7058 ft 258 kts 251°
2026-04-17 11:40 51.03740 -0.75203 7628 ft 260 kts 252°
2026-04-17 11:40 51.03304 -0.77991 8573 ft 259 kts 257°
2026-04-17 11:41 51.02943 -0.80796 9452 ft 261 kts 257°
2026-04-17 11:41 51.02576 -0.83641 10263 ft 264 kts 257°
2026-04-17 11:41 51.02186 -0.86582 10731 ft 279 kts 256°
2026-04-17 11:41 51.01776 -0.89632 11387 ft 285 kts 256°
2026-04-17 11:42 51.01356 -0.92701 12134 ft 288 kts 255°
2026-04-17 11:42 51.00895 -0.95823 12957 ft 289 kts 255°
2026-04-17 11:42 51.00432 -0.98909 13750 ft 292 kts 255°
2026-04-17 11:42 50.99985 -1.02067 14445 ft 295 kts 255°
2026-04-17 11:43 50.99545 -1.05272 15138 ft 298 kts 255°
2026-04-17 11:43 50.99103 -1.08510 15830 ft 300 kts 255°
2026-04-17 11:43 50.98656 -1.11766 16505 ft 303 kts 255°
2026-04-17 11:43 50.98202 -1.15062 17180 ft 306 kts 255°
2026-04-17 11:44 50.97750 -1.18339 17853 ft 309 kts 255°
2026-04-17 11:44 50.97287 -1.21689 18526 ft 312 kts 255°
2026-04-17 11:44 50.96818 -1.25061 19108 ft 314 kts 255°
2026-04-17 11:44 50.96343 -1.28461 19713 ft 316 kts 255°
2026-04-17 11:45 50.95733 -1.31812 20288 ft 316 kts 243°
2026-04-17 11:45 50.94559 -1.34758 20878 ft 317 kts 231°
2026-04-17 11:45 50.92994 -1.37214 21447 ft 320 kts 218°
2026-04-17 11:45 50.91145 -1.39227 22034 ft 323 kts 215°
2026-04-17 11:46 50.89252 -1.41173 22617 ft 326 kts 215°
2026-04-17 11:46 50.87342 -1.43116 23256 ft 326 kts 215°
2026-04-17 11:46 50.85425 -1.45072 23752 ft 329 kts 215°
2026-04-17 11:46 50.83513 -1.47033 24160 ft 333 kts 215°
2026-04-17 11:47 50.81566 -1.49040 24634 ft 334 kts 215°
2026-04-17 11:47 50.79615 -1.51056 25113 ft 335 kts 215°
2026-04-17 11:47 50.77653 -1.53087 25550 ft 337 kts 215°
2026-04-17 11:47 50.75686 -1.55123 25979 ft 339 kts 215°
2026-04-17 11:48 50.73728 -1.57150 26417 ft 341 kts 215°
2026-04-17 11:48 50.71738 -1.59208 26883 ft 342 kts 215°
2026-04-17 11:48 50.69741 -1.61272 27312 ft 343 kts 215°
2026-04-17 11:48 50.67733 -1.63345 27709 ft 346 kts 215°
2026-04-17 11:49 50.65711 -1.65431 28121 ft 348 kts 215°
2026-04-17 11:49 50.63704 -1.67500 28519 ft 350 kts 215°
2026-04-17 11:49 50.61655 -1.69609 28828 ft 354 kts 215°
2026-04-17 11:49 50.59580 -1.71744 29195 ft 356 kts 214°
2026-04-17 11:50 50.57503 -1.73878 29609 ft 357 kts 214°
2026-04-17 11:50 50.55409 -1.76026 29984 ft 359 kts 214°
2026-04-17 11:50 50.53333 -1.78153 30327 ft 361 kts 214°
2026-04-17 11:50 50.51220 -1.80311 30616 ft 363 kts 214°
2026-04-17 11:51 50.49091 -1.82475 30912 ft 365 kts 214°
2026-04-17 11:51 50.46946 -1.84649 31204 ft 366 kts 214°
2026-04-17 11:51 50.44805 -1.86818 31600 ft 365 kts 214°
2026-04-17 11:51 50.42694 -1.88955 31929 ft 365 kts 214°
2026-04-17 11:52 50.40546 -1.91128 32141 ft 368 kts 214°
2026-04-17 11:52 50.38382 -1.93317 32282 ft 373 kts 214°
2026-04-17 11:52 50.36191 -1.95529 32515 ft 375 kts 214°
2026-04-17 11:52 50.33989 -1.97751 32813 ft 375 kts 214°
2026-04-17 11:53 50.31813 -1.99944 33081 ft 376 kts 214°
2026-04-17 11:53 50.29602 -2.02172 33313 ft 378 kts 214°
2026-04-17 11:53 50.27379 -2.04407 33529 ft 380 kts 214°
2026-04-17 11:53 50.25141 -2.06655 33762 ft 381 kts 214°
2026-04-17 11:54 50.22924 -2.08860 33989 ft 383 kts 213°
2026-04-17 11:54 50.20659 -2.11075 34212 ft 384 kts 213°
2026-04-17 11:54 50.18379 -2.13291 34392 ft 386 kts 213°
2026-04-17 11:54 50.16086 -2.15516 34508 ft 389 kts 213°
2026-04-17 11:55 50.11482 -2.19985 34782 ft 393 kts 213°
2026-04-17 11:55 50.09153 -2.22247 34981 ft 393 kts 213°
2026-04-17 11:55 50.06818 -2.24512 35154 ft 395 kts 213°
2026-04-17 11:56 50.06226 -2.25085 35195 ft 395 kts 213°
2026-04-17 11:56 50.03884 -2.27355 35345 ft 396 kts 213°
2026-04-17 11:56 50.01539 -2.29625 35683 ft 393 kts 213°
2026-04-17 11:57 49.99226 -2.31861 36050 ft 390 kts 213°
2026-04-17 11:57 49.96919 -2.34090 36234 ft 390 kts 213°
2026-04-17 11:57 49.94626 -2.36301 36349 ft 392 kts 213°
2026-04-17 11:57 49.92300 -2.38542 36402 ft 395 kts 213°
2026-04-17 11:58 49.89951 -2.40803 36566 ft 396 kts 213°
2026-04-17 11:58 49.87615 -2.43049 36835 ft 394 kts 213°
2026-04-17 11:58 49.85287 -2.45285 37048 ft 393 kts 213°
2026-04-17 11:58 49.82950 -2.47528 37033 ft 397 kts 213°
2026-04-17 11:59 49.78240 -2.52043 37050 ft 403 kts 213°
2026-04-17 11:59 49.73443 -2.56631 37052 ft 407 kts 213°
2026-04-17 12:00 49.66122 -2.63611 37054 ft 411 kts 213°
2026-04-17 12:00 49.56342 -2.72895 37062 ft 412 kts 213°
2026-04-17 12:01 49.46701 -2.82004 37014 ft 405 kts 213°
2026-04-17 12:01 49.37121 -2.91014 37038 ft 400 kts 213°
2026-04-17 12:02 49.27658 -2.99875 37054 ft 401 kts 212°
2026-04-17 12:02 49.18015 -3.08863 37054 ft 410 kts 212°
2026-04-17 12:03 49.08204 -3.17965 37036 ft 415 kts 212°
2026-04-17 12:03 48.98371 -3.27041 37017 ft 408 kts 212°
2026-04-17 12:04 48.88797 -3.35840 37019 ft 401 kts 212°
2026-04-17 12:04 48.71548 -3.51597 37083 ft 405 kts 212°
2026-04-17 12:05 48.51975 -3.69320 37021 ft 415 kts 212°
2026-04-17 12:05 48.32082 -3.87165 37022 ft 413 kts 212°
2026-04-17 12:06 48.12486 -4.04584 36999 ft 405 kts 212°
2026-04-17 12:06 47.93251 -4.21538 37055 ft 401 kts 212°
2026-04-17 12:07 47.73750 -4.38931 37079 ft 414 kts 214°
2026-04-17 12:07 47.54152 -4.57106 37049 ft 416 kts 214°
2026-04-17 12:08 47.34559 -4.74992 37038 ft 407 kts 214°
2026-04-17 12:08 47.15454 -4.92297 37081 ft 402 kts 214°
2026-04-17 12:09 46.96227 -5.09593 37093 ft 414 kts 214°
2026-04-17 12:09 46.76358 -5.27344 37053 ft 416 kts 214°
2026-04-17 12:10 46.56861 -5.44609 37050 ft 407 kts 213°
2026-04-17 12:10 46.37679 -5.61457 37064 ft 400 kts 213°
2026-04-17 12:11 46.18466 -5.78196 37096 ft 411 kts 213°
2026-04-17 12:12 45.99897 -5.94235 37054 ft 413 kts 213°
2026-04-17 12:12 45.94208 -5.99121 37069 ft 406 kts 213°
2026-04-17 12:13 45.90181 -6.02574 37069 ft 404 kts 213°
2026-04-17 12:13 45.85349 -6.06711 37073 ft 403 kts 213°
2026-04-17 12:14 45.80510 -6.10848 36782 ft 410 kts 213°
2026-04-17 12:14 45.78078 -6.12925 36529 ft 413 kts 213°
2026-04-17 12:14 45.75609 -6.15028 36667 ft 412 kts 213°
2026-04-17 12:14 45.73147 -6.17123 36885 ft 410 kts 213°
2026-04-17 12:15 45.69947 -6.19843 37066 ft 411 kts 213°
2026-04-17 12:15 45.50145 -6.36600 37063 ft 415 kts 213°
2026-04-17 12:16 45.30385 -6.53181 37048 ft 406 kts 213°
2026-04-17 12:16 45.11234 -6.69125 37063 ft 397 kts 212°
2026-04-17 12:17 44.91966 -6.85044 37089 ft 406 kts 212°
2026-04-17 12:17 44.79263 -6.95240 37071 ft 414 kts 210°
2026-04-17 12:18 44.58593 -7.09726 37063 ft 412 kts 209°
2026-04-17 12:18 44.38462 -7.23962 37054 ft 402 kts 209°
2026-04-17 12:19 44.18534 -7.37935 37091 ft 402 kts 209°
2026-04-17 12:19 43.98216 -7.52071 37086 ft 414 kts 209°
2026-04-17 12:20 43.77449 -7.66403 37032 ft 414 kts 208°
2026-04-17 12:20 43.57102 -7.80338 37037 ft 406 kts 208°
2026-04-17 12:21 43.36981 -7.94019 37062 ft 402 kts 208°
2026-04-17 12:21 43.16625 -8.07757 37076 ft 413 kts 208°
2026-04-17 12:22 42.95869 -8.21655 37047 ft 419 kts 208°
2026-04-17 12:22 42.74978 -8.35537 37020 ft 413 kts 208°
2026-04-17 12:23 42.54589 -8.48988 37018 ft 403 kts 208°
2026-04-17 12:23 42.34278 -8.62294 37020 ft 413 kts 208°
2026-04-17 12:24 42.13312 -8.75924 37029 ft 421 kts 207°
2026-04-17 12:24 41.92223 -8.89535 37020 ft 415 kts 207°
2026-04-17 12:25 41.72513 -9.04401 37033 ft 405 kts 213°
2026-04-17 12:25 41.52949 -9.20044 37076 ft 415 kts 212°
2026-04-17 12:26 41.32745 -9.35955 37036 ft 424 kts 212°
2026-04-17 12:26 41.12593 -9.51720 37035 ft 419 kts 212°
2026-04-17 12:27 40.92706 -9.67168 37009 ft 409 kts 212°
2026-04-17 12:27 40.72901 -9.82446 37076 ft 416 kts 212°
2026-04-17 12:28 40.52686 -9.97930 37062 ft 427 kts 211°
2026-04-17 12:28 40.32158 -10.13540 37032 ft 422 kts 211°
2026-04-17 12:29 40.12026 -10.28742 37041 ft 412 kts 211°
2026-04-17 12:29 39.92171 -10.43637 37066 ft 417 kts 211°
2026-04-17 12:30 39.71653 -10.58921 37067 ft 430 kts 211°
2026-04-17 12:30 39.50860 -10.74300 37001 ft 427 kts 211°
2026-04-17 12:31 39.30610 -10.89179 37027 ft 416 kts 211°
2026-04-17 12:31 39.11027 -11.05129 37075 ft 420 kts 218°
2026-04-17 12:32 38.91784 -11.23141 37053 ft 433 kts 217°
2026-04-17 12:32 38.72190 -11.41065 37007 ft 428 kts 217°
2026-04-17 12:33 38.53125 -11.58413 37002 ft 418 kts 217°
2026-04-17 12:33 38.34067 -11.75643 37051 ft 423 kts 217°
2026-04-17 12:34 38.14588 -11.93134 37039 ft 435 kts 217°
2026-04-17 12:34 37.94837 -12.10747 37009 ft 430 kts 217°
2026-04-17 12:35 37.75435 -12.27937 37016 ft 419 kts 217°
2026-04-17 12:35 37.56356 -12.44735 37056 ft 424 kts 217°
2026-04-17 12:37 36.77888 -13.12708 37054 ft 426 kts 216°
2026-04-17 12:38 36.58007 -13.29659 37047 ft 438 kts 216°
2026-04-17 12:38 36.38711 -13.47658 37015 ft 432 kts 219°
2026-04-17 12:39 36.19853 -13.65556 37003 ft 421 kts 219°
2026-04-17 12:39 36.01168 -13.83130 37049 ft 424 kts 219°
2026-04-17 12:40 35.82119 -14.00941 37040 ft 436 kts 219°
2026-04-17 12:40 35.62798 -14.18888 37004 ft 431 kts 219°
2026-04-17 12:41 35.44001 -14.36245 37011 ft 419 kts 219°
2026-04-17 12:41 35.25320 -14.53397 37044 ft 422 kts 219°
2026-04-17 12:42 35.06202 -14.70843 37040 ft 433 kts 219°
2026-04-17 12:42 34.86903 -14.88344 37009 ft 428 kts 219°
2026-04-17 12:43 34.68111 -15.05288 37007 ft 416 kts 219°
2026-04-17 12:43 34.49443 -15.22027 37039 ft 420 kts 219°
2026-04-17 12:44 34.38006 -15.32235 37023 ft 429 kts 218°
2026-04-17 12:44 34.33178 -15.36532 37025 ft 431 kts 218°
2026-04-17 12:45 34.28324 -15.40845 36586 ft 435 kts 218°
2026-04-17 12:45 34.25927 -15.42972 35982 ft 431 kts 219°
2026-04-17 12:45 34.23492 -15.45133 35188 ft 433 kts 219°
2026-04-17 12:45 34.21065 -15.47284 34514 ft 432 kts 219°
2026-04-17 12:46 34.18641 -15.49432 33772 ft 432 kts 219°
2026-04-17 12:46 34.16239 -15.51559 32998 ft 432 kts 219°
2026-04-17 12:46 34.13809 -15.53708 32233 ft 432 kts 219°
2026-04-17 12:46 34.11380 -15.55856 31469 ft 432 kts 219°
2026-04-17 12:47 34.08953 -15.58000 30701 ft 432 kts 219°
2026-04-17 12:47 34.06523 -15.60146 29874 ft 433 kts 219°
2026-04-17 12:47 34.04106 -15.62276 29290 ft 426 kts 219°
2026-04-17 12:47 34.01753 -15.64350 28708 ft 421 kts 218°
2026-04-17 12:48 33.99394 -15.66426 28108 ft 416 kts 218°
2026-04-17 12:48 33.97067 -15.68474 27530 ft 410 kts 219°
2026-04-17 12:48 33.94769 -15.70495 26992 ft 405 kts 219°
2026-04-17 12:48 33.92536 -15.72459 26426 ft 401 kts 219°
2026-04-17 12:49 33.90294 -15.74428 25880 ft 397 kts 219°
2026-04-17 12:49 33.88069 -15.76383 25337 ft 393 kts 219°
2026-04-17 12:49 33.85863 -15.78318 24795 ft 390 kts 219°
2026-04-17 12:49 33.83672 -15.80240 24262 ft 388 kts 218°
2026-04-17 12:50 33.81499 -15.82145 23691 ft 386 kts 218°
2026-04-17 12:50 33.79332 -15.84043 23072 ft 384 kts 218°
2026-04-17 12:50 33.77182 -15.85925 22505 ft 380 kts 218°
2026-04-17 12:50 33.75072 -15.87771 21971 ft 377 kts 218°
2026-04-17 12:51 33.72957 -15.89620 21432 ft 374 kts 218°
2026-04-17 12:51 33.70857 -15.91456 20905 ft 371 kts 218°
2026-04-17 12:51 33.68774 -15.93275 20380 ft 368 kts 218°
2026-04-17 12:51 33.66706 -15.95078 19860 ft 365 kts 218°
2026-04-17 12:52 33.64631 -15.96876 19147 ft 369 kts 218°
2026-04-17 12:52 33.62566 -15.98650 18587 ft 369 kts 217°
2026-04-17 12:52 33.60476 -16.00442 18001 ft 367 kts 217°
2026-04-17 12:52 33.58401 -16.02221 17446 ft 364 kts 217°
2026-04-17 12:53 33.56373 -16.03958 16920 ft 361 kts 217°
2026-04-17 12:53 33.54328 -16.05711 16404 ft 358 kts 217°
2026-04-17 12:53 33.52300 -16.07448 15905 ft 356 kts 217°
2026-04-17 12:53 33.50286 -16.09174 15404 ft 353 kts 217°
2026-04-17 12:54 33.48316 -16.10861 14916 ft 351 kts 217°
2026-04-17 12:54 33.46328 -16.12563 14422 ft 349 kts 217°
2026-04-17 12:54 33.44352 -16.14254 13916 ft 348 kts 217°
2026-04-17 12:54 33.42385 -16.15936 13360 ft 346 kts 217°
2026-04-17 12:55 33.40427 -16.17610 12844 ft 344 kts 217°
2026-04-17 12:55 33.38509 -16.19248 12343 ft 341 kts 217°
2026-04-17 12:55 33.36579 -16.20896 11848 ft 339 kts 216°
2026-04-17 12:55 33.34663 -16.22531 11361 ft 336 kts 216°
2026-04-17 12:56 33.32760 -16.24154 10926 ft 332 kts 216°
2026-04-17 12:56 33.30916 -16.25725 10813 ft 319 kts 216°
2026-04-17 12:56 33.29134 -16.27243 10661 ft 309 kts 216°
2026-04-17 12:56 33.27416 -16.28705 10527 ft 298 kts 216°
2026-04-17 12:57 33.25767 -16.30109 10404 ft 288 kts 216°
2026-04-17 12:57 33.24155 -16.31480 10282 ft 279 kts 216°
2026-04-17 12:57 33.22600 -16.32803 10166 ft 270 kts 216°
2026-04-17 12:57 33.21086 -16.34090 10060 ft 262 kts 216°
2026-04-17 12:58 33.19629 -16.35327 9835 ft 258 kts 215°
2026-04-17 12:58 33.18170 -16.36566 9559 ft 256 kts 215°
2026-04-17 12:58 33.16718 -16.37800 9288 ft 255 kts 215°
2026-04-17 12:58 33.15269 -16.39029 8994 ft 255 kts 215°
2026-04-17 12:59 33.13842 -16.40239 8725 ft 254 kts 214°
2026-04-17 12:59 33.12403 -16.41460 8441 ft 253 kts 214°
2026-04-17 12:59 33.10969 -16.42675 8175 ft 252 kts 214°
2026-04-17 12:59 33.09559 -16.43869 7904 ft 251 kts 214°
2026-04-17 13:00 33.08131 -16.45078 7627 ft 250 kts 214°
2026-04-17 13:00 33.06720 -16.46271 7346 ft 246 kts 214°
2026-04-17 13:00 33.05338 -16.47442 7061 ft 240 kts 214°
2026-04-17 13:00 33.03992 -16.48582 6802 ft 235 kts 213°
2026-04-17 13:01 33.02691 -16.49682 6535 ft 230 kts 212°
2026-04-17 13:01 33.01400 -16.50774 6314 ft 222 kts 213°
2026-04-17 13:01 33.00164 -16.51796 6182 ft 210 kts 209°
2026-04-17 13:01 32.98904 -16.52633 6086 ft 205 kts 206°
2026-04-17 13:02 32.98070 -16.53165 6026 ft 204 kts 205°
2026-04-17 13:02 32.96827 -16.53976 5944 ft 203 kts 207°
2026-04-17 13:02 32.95184 -16.55042 5836 ft 203 kts 205°
2026-04-17 13:02 32.93948 -16.55871 5744 ft 205 kts 206°
2026-04-17 13:03 32.93113 -16.56425 5604 ft 209 kts 206°
2026-04-17 13:03 32.91821 -16.57269 5406 ft 213 kts 205°
2026-04-17 13:03 32.90109 -16.58390 5105 ft 209 kts 205°
2026-04-17 13:03 32.89256 -16.58955 4970 ft 205 kts 206°
2026-04-17 13:04 32.88045 -16.59758 4770 ft 198 kts 205°
2026-04-17 13:04 32.86864 -16.60546 4561 ft 191 kts 204°
2026-04-17 13:04 32.85721 -16.61315 4403 ft 187 kts 205°
2026-04-17 13:04 32.84598 -16.62097 4257 ft 188 kts 206°
2026-04-17 13:05 32.83469 -16.62874 4108 ft 188 kts 207°
2026-04-17 13:05 32.82330 -16.63636 3950 ft 189 kts 206°
2026-04-17 13:05 32.81166 -16.64401 3815 ft 192 kts 206°
2026-04-17 13:05 32.79992 -16.65150 3676 ft 191 kts 206°
2026-04-17 13:06 32.78834 -16.65890 3511 ft 191 kts 206°
2026-04-17 13:06 32.77659 -16.66652 3367 ft 192 kts 206°
2026-04-17 13:06 32.76488 -16.67406 3200 ft 192 kts 205°
2026-04-17 13:06 32.75311 -16.68163 3076 ft 195 kts 206°
2026-04-17 13:07 32.74108 -16.68924 3015 ft 194 kts 205°
2026-04-17 13:07 32.72928 -16.69676 2987 ft 191 kts 208°
2026-04-17 13:07 32.71890 -16.70596 3007 ft 185 kts 216°
2026-04-17 13:07 32.70861 -16.71529 3018 ft 185 kts 216°
2026-04-17 13:08 32.69838 -16.72449 2999 ft 181 kts 216°
2026-04-17 13:08 32.68836 -16.73360 2978 ft 182 kts 216°
2026-04-17 13:08 32.67831 -16.74267 2996 ft 180 kts 215°
2026-04-17 13:08 32.66836 -16.75169 2982 ft 179 kts 216°
2026-04-17 13:09 32.65834 -16.76078 3015 ft 182 kts 216°
2026-04-17 13:09 32.64856 -16.76980 2989 ft 186 kts 220°
2026-04-17 13:09 32.64210 -16.78279 2786 ft 184 kts 263°
2026-04-17 13:09 32.64417 -16.79719 2479 ft 177 kts 306°
2026-04-17 13:10 32.65330 -16.80575 1948 ft 161 kts 351°
2026-04-17 13:10 32.66395 -16.80552 1381 ft 154 kts 16°
2026-04-17 13:10 32.67380 -16.80092 897 ft 151 kts 32°
2026-04-17 13:10 32.68180 -16.79340 489 ft 141 kts 45°
2026-04-17 13:11 32.68822 -16.78585 283 ft 122 kts 43°
2026-04-17 13:11 32.69391 -16.77912 177 ft 106 kts 43°
2026-04-17 13:11 32.69793 -16.77446 175 ft 50 kts 45°
2026-04-17 13:11 32.69917 -16.77300 175 ft 13 kts 45°
2026-04-17 13:12 32.69952 -16.77210 175 ft 13 kts 106°
2026-04-17 13:12 32.69804 -16.77221 175 ft 12 kts 228°
2026-04-17 13:12 32.69756 -16.77281 175 ft 8 kts 226°
2026-04-17 13:13 32.69713 -16.77333 175 ft 10 kts 225°
2026-04-17 13:13 32.69659 -16.77399 175 ft 12 kts 226°
2026-04-17 13:13 32.69594 -16.77479 175 ft 15 kts 227°
2026-04-17 13:13 32.69547 -16.77529 175 ft 6 kts 191°
2026-04-17 13:14 32.69512 -16.77502 175 ft 7 kts 140°
2026-04-17 13:14 32.69487 -16.77477 175 ft 0 kts 138°